Theta_e
323 322 321 321 321 322 322 322 322 322 323 322 322 322 322 322 322 322 322 323 323 324 324 325 326 326 327 327 328 328 324 316 313 311 304 305 318 331 334 334 336 336 331 304 302 301 300 297 302 299 302 300 302 300 300 301 298 296 290 286 287 284 286 287 289 288 288 290 290 290 291 292 292 294 297 296 295 293 294 297 295 306 314 316 313 311 313 319
322 321 321 321 321 321 322 322 322 322 322 322 321 321 322 321 321 321 321 322 323 323 324 324 325 326 327 327 327 327 316 313 310 307 307 317 335 332 337 336 336 333 321 304 299 298 299 300 298 297 299 300 301 301 302 300 298 289 286 286 288 285 290 291 289 290 290 291 291 292 289 293 293 293 295 294 292 294 295 296 295 301 306 314 314 314 317 319
322 321 320 321 321 321 322 322 322 322 321 321 321 321 320 320 320 321 321 322 322 323 323 324 325 325 327 327 326 325 317 308 305 301 305 331 336 335 335 337 336 333 308 307 300 299 299 299 299 297 296 296 295 299 298 298 297 293 291 289 284 289 289 289 290 291 290 292 292 291 291 291 293 294 294 294 291 292 293 293 294 297 299 308 315 313 315 319
321 321 320 320 320 321 321 321 321 321 321 320 320 320 319 319 319 320 320 321 321 322 323 324 325 325 325 325 326 317 309 303 297 298 309 330 335 336 337 335 334 326 312 306 301 301 298 297 295 297 296 292 292 297 296 298 297 293 290 285 289 288 292 293 289 290 290 290 292 291 290 292 292 292 293 289 293 291 291 291 296 296 296 311 315 312 313 317
321 321 320 320 320 320 320 320 320 320 320 319 319 319 318 318 318 319 320 320 321 321 322 323 324 325 325 325 324 313 302 292 294 302 313 333 334 333 335 335 332 314 315 310 302 300 298 296 297 295 295 292 293 294 292 295 293 292 292 289 290 289 292 293 289 290 290 288 291 289 292 292 293 294 290 293 290 290 294 296 295 297 299 313 315 316 313 316
321 320 320 320 320 320 320 319 319 320 320 319 319 318 317 317 318 318 319 320 320 321 322 323 324 324 325 324 314 310 298 286 299 308 328 336 332 334 334 334 331 310 304 303 301 300 301 298 297 297 293 293 292 292 292 293 295 293 290 289 288 289 293 292 292 291 288 290 290 289 292 292 292 293 289 292 293 291 291 293 296 296 305 315 318 317 315 315
321 321 320 320 320 320 319 319 319 319 319 319 318 318 318 317 317 318 319 319 320 320 321 322 323 324 324 323 312 307 297 293 305 311 327 333 334 335 335 333 324 305 305 303 303 302 296 296 295 293 290 290 291 290 293 295 290 289 292 290 294 290 293 291 292 289 288 292 291 290 293 293 291 294 291 289 292 291 290 291 291 293 313 316 316 317 317 316
321 320 320 319 320 320 319 318 318 318 318 318 318 318 317 317 317 318 318 319 319 320 321 321 323 324 323 312 304 300 301 299 305 313 325 331 313 318 323 315 308 305 304 302 300 298 296 296 296 293 290 291 291 293 294 294 292 293 292 291 292 291 292 289 288 288 289 290 291 291 293 294 291 292 291 291 294 294 292 295 294 303 312 312 313 315 317 317
320 320 319 319 319 319 320 318 317 317 317 317 317 317 317 317 317 317 318 319 320 320 320 322 322 323 322 307 297 295 296 303 313 315 312 308 307 309 311 312 308 306 304 301 301 299 299 295 294 295 294 292 293 293 292 293 291 290 293 289 291 292 291 290 292 289 290 292 290 292 293 290 290 290 293 294 293 293 295 296 298 306 309 310 311 315 316 316
320 320 319 318 318 318 318 317 317 316 316 316 317 317 316 316 317 317 318 318 319 320 320 322 323 322 311 302 297 291 298 312 313 310 307 306 306 307 309 309 306 302 304 304 299 298 300 297 297 297 295 294 294 293 291 292 289 289 289 289 291 291 292 291 293 291 290 292 290 291 290 293 292 293 289 290 291 292 296 295 297 304 307 309 310 312 313 313
320 320 319 318 318 318 317 316 316 316 316 316 316 316 316 316 317 317 317 318 319 320 321 322 322 319 309 301 295 291 308 312 312 308 307 308 306 306 306 307 305 305 303 303 302 298 300 298 300 298 301 295 294 293 291 293 291 291 291 290 290 288 292 291 291 292 291 294 289 291 290 290 292 291 291 293 292 292 296 296 296 295 301 306 307 309 311 312
320 319 319 318 318 317 317 317 316 316 316 316 316 315 315 316 316 317 317 318 319 320 321 322 321 314 302 300 294 295 306 311 311 308 309 308 307 306 306 305 305 305 304 302 303 305 301 300 300 299 294 297 294 293 295 294 293 291 291 290 289 286 292 291 293 292 291 293 293 292 291 291 292 290 294 292 291 293 294 294 294 295 295 296 300 304 306 311
320 319 319 318 318 317 317 317 316 316 315 316 315 314 314 316 316 317 317 318 319 320 320 322 318 315 302 295 296 302 310 310 310 308 309 308 308 307 307 307 307 303 303 303 301 305 302 301 299 298 298 294 291 292 293 292 291 292 290 288 288 285 285 292 290 291 293 293 291 291 285 283 286 294 294 292 291 291 293 292 293 294 294 294 294 298 302 305
319 319 318 318 317 317 317 316 316 315 315 316 314 314 314 315 315 316 318 318 319 320 320 322 310 309 298 290 301 310 311 313 310 308 309 309 307 308 305 306 306 305 306 301 302 303 304 300 299 298 298 295 295 300 296 292 289 291 290 285 283 286 285 289 290 291 293 293 291 291 285 283 284 285 288 287 290 292 293 293 292 293 293 293 293 295 298 300
319 318 318 318 317 317 317 316 316 315 316 315 315 313 315 315 316 317 317 318 320 320 322 317 312 300 295 294 305 312 324 312 308 307 309 309 304 304 305 306 305 303 303 303 303 304 302 301 301 297 297 296 297 294 288 285 285 284 288 284 283 284 283 287 290 290 291 294 289 290 284 287 289 290 289 288 291 289 292 292 291 291 293 293 293 293 294 297
319 318 318 318 317 317 316 316 316 316 315 315 314 314 314 315 315 316 318 318 320 321 314 311 310 295 290 290 308 319 309 304 304 307 309 310 306 306 304 303 306 303 302 301 304 301 300 301 297 295 296 295 292 288 285 286 285 283 283 281 285 283 283 288 293 289 292 293 291 291 285 284 289 289 291 290 291 290 291 291 290 290 291 292 293 294 295 295
319 318 318 317 317 317 316 316 315 315 315 314 314 314 314 315 316 318 320 320 317 315 312 305 308 303 291 298 306 305 301 304 308 309 307 308 309 304 304 304 302 303 301 301 301 302 299 297 295 294 291 290 287 289 287 281 280 287 283 283 281 284 284 285 287 291 289 292 290 290 289 286 288 288 287 289 291 290 292 292 292 292 292 293 293 293 294 295
319 318 318 317 317 317 316 315 315 314 314 314 314 314 311 315 318 317 317 315 313 311 310 310 301 296 294 301 297 299 304 305 308 307 308 306 304 303 302 301 300 298 299 300 299 298 297 296 293 292 289 289 289 286 285 281 286 284 284 284 285 282 282 283 287 291 292 289 290 288 288 290 292 293 293 294 291 291 291 292 294 294 294 294 293 293 294 294
319 318 317 317 317 316 316 315 314 314 313 314 314 315 316 316 310 307 307 306 297 293 293 294 292 286 286 292 300 304 306 307 306 307 306 306 306 304 302 301 300 300 296 294 296 297 293 293 293 289 288 286 288 289 287 284 286 286 287 284 280 284 285 285 285 285 290 288 289 286 288 290 292 293 294 294 291 290 291 290 291 292 293 294 295 294 294 294
319 318 318 317 317 316 315 314 314 314 314 310 306 306 299 295 296 297 302 301 293 292 294 295 294 292 299 299 302 306 308 304 303 301 306 305 307 302 299 298 299 295 294 294 295 295 292 289 287 287 289 290 290 288 289 287 287 286 283 281 283 282 283 284 286 290 288 289 288 287 287 286 289 291 293 293 290 289 289 291 292 292 293 294 294 294 294 293
318 318 318 317 316 315 315 315 314 314 314 305 305 298 291 292 288 287 295 297 297 297 297 297 295 298 300 303 303 302 301 300 301 302 306 310 304 301 297 297 294 293 292 291 295 294 291 288 287 289 290 290 289 286 287 286 286 287 284 284 283 283 286 287 290 289 289 289 284 284 285 287 289 291 292 292 290 291 293 292 292 293 293 294 293 292 291 294
318 318 318 317 316 315 315 314 314 314 314 309 308 300 300 293 296 295 292 288 294 294 297 299 299 301 302 302 304 303 299 297 299 302 306 306 302 298 294 293 291 292 292 292 292 292 289 287 290 290 288 287 286 285 285 285 285 283 286 282 284 285 283 286 288 288 289 289 286 283 286 290 291 292 293 292 294 295 294 292 293 292 293 293 293 290 291 291
318 318 317 317 316 315 315 314 313 314 309 307 304 303 303 306 304 301 292 288 290 295 298 297 299 299 301 302 303 304 297 293 294 298 302 304 299 298 294 292 290 290 292 292 290 286 287 287 290 288 288 289 286 286 287 285 284 283 282 284 283 283 286 284 284 287 288 288 287 285 287 290 291 290 291 294 294 294 292 292 293 293 293 294 294 291 291 290
317 317 317 316 316 315 315 313 314 311 308 307 305 303 304 303 305 302 292 286 286 292 298 298 299 299 298 300 304 299 295 295 296 297 301 301 298 297 295 290 290 290 291 289 290 290 286 289 289 288 288 290 287 286 287 287 286 283 282 280 282 286 285 282 286 286 282 287 284 284 285 286 282 283 285 285 286 289 291 289 291 293 293 294 291 291 291 292
317 317 317 316 315 315 313 313 307 305 309 308 305 308 308 306 305 303 290 287 284 290 297 297 300 300 302 307 306 300 297 297 298 299 302 301 295 295 294 292 291 289 289 288 288 288 287 288 288 289 287 287 288 285 286 288 284 285 284 284 284 284 286 287 282 285 277 281 281 284 280 275 277 281 283 286 285 286 284 285 289 290 290 290 291 292 293 292
317 316 316 315 315 314 314 305 304 307 305 303 303 304 306 305 305 302 289 282 280 284 292 291 301 296 307 299 303 299 298 294 299 300 302 300 301 296 294 292 291 289 287 288 288 285 286 289 289 290 288 287 287 287 286 288 283 284 286 285 285 285 286 285 284 282 280 279 283 283 280 276 279 283 286 287 286 289 290 289 291 292 289 288 290 291 291 291
317 316 316 315 314 314 304 298 308 307 300 301 306 305 301 304 302 300 289 279 277 286 286 292 294 295 303 300 302 296 287 288 300 300 300 302 300 299 294 289 290 289 290 289 288 287 291 290 288 288 288 287 286 286 287 287 284 284 284 284 286 287 286 284 281 283 279 279 281 280 276 277 280 284 285 284 284 287 288 290 291 292 288 287 288 290 289 291
316 316 316 315 314 312 300 305 305 302 300 302 301 306 303 300 297 292 284 273 271 289 287 287 293 301 301 301 298 291 290 295 293 296 299 300 299 294 291 289 291 290 290 288 283 287 290 289 287 287 284 284 287 285 287 286 284 284 285 285 284 285 282 281 281 280 280 281 280 277 283 281 278 282 283 282 284 285 287 290 290 289 287 287 288 289 288 290
316 316 315 315 314 312 308 305 304 301 302 302 302 305 304 299 293 288 281 272 286 284 298 290 300 300 296 298 293 292 294 293 290 294 298 299 299 296 291 288 288 289 289 289 286 287 291 289 289 289 287 286 285 287 285 289 289 288 285 286 284 283 283 281 279 282 277 279 275 278 282 276 278 279 280 280 285 286 288 288 288 289 288 288 289 288 288 289
316 315 315 315 313 309 306 307 304 303 303 302 304 303 301 294 289 283 275 269 289 282 289 291 292 289 293 294 290 292 293 291 293 295 295 295 296 294 293 291 292 290 289 288 287 287 290 292 292 288 288 286 287 286 285 287 290 290 287 288 284 281 281 279 278 276 278 273 275 277 280 280 277 280 282 284 285 285 285 286 286 286 286 286 287 288 290 297
316 316 315 315 306 308 309 302 304 304 302 302 302 301 296 287 282 276 268 279 288 287 288 287 286 293 292 291 289 288 290 290 294 294 292 295 294 291 292 291 290 286 285 283 286 285 289 289 291 289 290 287 288 289 287 287 287 289 285 281 286 283 278 278 272 275 273 270 273 277 279 280 275 277 281 284 284 284 287 288 288 287 288 289 293 296 295 295
315 315 316 312 309 311 304 302 307 307 304 304 303 298 291 281 281 276 274 290 282 284 284 283 284 288 291 292 287 288 290 291 292 292 292 288 289 289 289 287 287 281 282 283 283 284 287 289 286 290 291 291 287 290 288 288 284 284 283 285 279 272 270 274 268 275 272 272 278 278 279 280 280 282 284 285 286 287 286 288 289 287 287 291 296 297 296 293
315 314 315 312 310 307 307 308 307 307 305 304 300 291 287 279 274 280 278 283 280 286 285 288 286 288 288 288 286 287 288 289 290 290 290 288 290 287 287 287 287 286 282 282 284 284 284 282 287 289 291 291 290 288 285 285 285 283 286 279 275 271 269 265 261 263 267 273 277 280 281 280 280 283 288 291 291 287 286 286 287 287 288 288 290 293 292 292
315 315 311 310 309 309 309 307 306 307 306 302 294 288 281 274 276 290 283 282 283 285 286 284 286 286 288 288 285 290 288 286 290 290 291 288 287 286 288 288 286 284 282 280 285 283 277 279 286 289 287 289 290 290 291 287 287 286 283 285 280 270 267 266 264 272 272 271 275 276 276 275 277 283 286 288 289 287 287 287 286 286 286 286 288 288 290 291
314 313 311 309 308 309 308 306 305 306 305 299 291 287 279 278 282 282 282 282 281 285 286 288 288 286 284 283 284 289 286 286 288 288 287 288 285 285 287 288 287 282 285 285 282 280 283 279 282 287 287 289 291 289 286 286 287 283 280 281 278 277 274 271 266 268 267 270 271 275 277 277 282 285 285 286 286 288 288 287 286 287 286 287 291 294 295 294
312 310 310 307 306 307 309 309 305 305 303 294 288 282 280 283 280 284 284 286 285 284 284 286 282 285 281 282 286 287 289 287 288 287 286 286 286 287 286 287 289 288 287 285 282 281 281 282 285 285 286 289 289 287 289 287 282 284 284 280 281 280 279 271 271 273 271 269 273 270 278 281 281 284 289 287 286 289 287 287 287 288 288 288 291 292 294 295
308 309 304 306 306 308 309 309 307 304 299 292 287 281 286 285 284 284 291 289 287 289 286 283 282 282 281 281 283 285 286 288 286 284 284 285 286 286 286 287 289 288 290 288 283 283 283 279 285 286 287 288 287 287 286 286 285 285 280 282 283 283 280 277 273 265 264 270 272 272 276 277 276 279 281 282 286 288 287 289 290 288 288 289 290 290 294 296
307 306 306 305 307 309 310 308 306 302 297 290 285 289 285 286 286 288 287 289 288 287 284 284 283 284 282 282 281 285 285 287 285 284 283 286 283 288 287 287 289 292 291 287 287 284 284 281 283 284 285 287 285 290 289 288 287 283 281 284 286 279 278 277 272 270 266 266 267 271 273 274 278 281 280 283 284 286 287 289 289 290 290 288 288 288 289 292
307 305 298 305 310 310 309 309 305 300 294 287 284 286 286 286 287 287 290 292 290 286 286 282 282 284 283 283 283 285 287 283 284 283 283 282 283 286 291 290 287 290 291 288 287 284 287 280 279 285 286 287 287 287 284 285 288 287 287 285 285 281 273 274 277 270 273 267 264 270 268 279 279 280 281 287 284 285 286 285 287 289 288 288 288 289 290 292
303 299 298 309 310 310 309 308 301 297 291 285 286 285 285 285 286 288 289 294 288 287 284 284 283 283 283 283 285 285 285 285 286 284 284 284 285 287 288 291 289 289 291 289 286 288 284 283 275 283 284 286 285 285 285 287 285 284 284 282 285 281 283 279 278 274 274 265 264 266 271 274 277 281 282 287 287 286 286 288 287 287 288 287 287 288 289 289
304 299 299 309 310 310 309 303 295 291 289 290 290 285 284 286 287 288 292 292 291 292 288 285 285 284 283 284 284 286 284 283 285 285 284 284 286 282 288 291 290 288 289 290 287 287 284 282 278 282 282 282 283 283 285 289 291 288 287 285 287 282 278 275 276 278 270 272 269 264 273 276 277 282 286 285 284 284 285 286 287 286 286 288 288 287 287 288
299 291 296 310 310 310 303 293 291 290 287 287 286 287 286 297 287 287 291 291 292 290 290 288 288 286 286 287 287 286 285 283 283 284 284 285 288 286 286 291 290 292 292 286 288 286 285 281 282 278 283 286 285 288 284 286 285 285 286 285 286 285 281 275 274 275 273 275 273 269 267 279 283 283 284 283 282 282 282 284 284 285 285 286 288 287 287 287
296 294 305 309 311 307 299 290 290 289 287 286 289 287 288 288 287 290 288 289 291 291 291 290 289 287 287 287 286 287 288 284 286 285 285 287 286 289 286 291 291 292 293 287 288 285 290 279 279 276 276 279 283 283 284 284 288 287 286 282 283 286 283 279 273 275 280 272 273 271 270 279 286 284 282 281 280 282 282 283 286 293 292 292 292 293 292 293
295 297 300 308 311 306 295 286 286 288 288 287 289 288 289 290 289 289 288 289 290 290 290 289 289 290 288 287 288 286 289 282 285 287 284 285 285 287 289 290 293 290 292 288 290 290 282 279 283 271 270 276 278 282 282 285 286 281 282 282 283 283 280 278 278 276 276 277 278 277 275 281 283 282 282 285 285 289 290 287 285 293 291 290 293 292 292 291
296 297 298 302 308 304 292 291 288 288 288 284 286 286 288 288 289 291 290 289 290 289 289 289 291 290 288 289 289 289 290 289 282 287 287 284 287 289 288 291 293 291 293 291 295 293 288 282 282 275 275 274 272 275 279 283 283 283 278 281 285 287 283 283 280 277 276 274 278 276 280 283 285 286 287 287 284 288 287 286 286 286 290 289 289 291 289 289
292 284 293 296 300 300 299 295 291 287 286 285 286 286 288 286 289 288 291 291 291 290 290 291 289 289 288 289 287 287 288 289 287 284 287 285 284 287 288 291 292 292 293 295 293 292 280 282 284 284 282 280 282 283 284 286 283 283 284 284 285 287 286 287 281 277 280 279 277 283 285 283 283 285 285 288 283 286 290 292 291 292 289 286 286 286 287 289
294 287 287 285 292 291 286 292 292 290 287 290 285 287 286 288 288 289 292 290 291 291 290 290 290 288 286 288 287 287 289 289 284 285 286 288 284 286 288 289 291 292 294 292 293 287 279 283 284 284 285 286 286 282 283 289 286 287 286 284 286 286 286 285 284 282 285 277 278 284 284 283 286 285 286 286 286 285 285 286 287 287 287 289 289 287 290 288
288 291 293 294 288 284 285 286 290 289 290 291 286 288 287 287 288 286 291 292 293 292 290 289 289 289 289 289 287 284 286 286 286 285 285 286 286 287 288 289 289 292 293 291 291 289 284 282 285 283 284 285 283 282 285 286 287 287 287 286 285 286 285 284 285 288 285 283 282 286 283 284 287 289 289 289 289 290 290 291 290 290 288 287 288 289 288 287
293 291 292 296 289 289 289 290 289 289 288 290 288 288 284 286 286 289 288 288 290 290 291 286 288 290 288 288 289 284 286 284 284 285 284 284 286 284 283 287 289 288 290 288 288 285 286 282 284 284 284 285 283 282 284 286 285 284 285 286 287 286 286 287 288 289 287 285 287 288 284 286 290 290 289 291 292 291 292 291 289 288 289 288 288 288 287 287
289 290 288 293 293 289 291 291 289 287 285 290 286 286 288 287 286 289 290 289 286 289 291 289 288 289 289 287 288 286 287 289 289 287 284 286 283 285 287 286 284 286 289 287 288 286 288 283 287 283 280 282 284 281 282 284 284 283 283 285 286 286 287 288 288 289 288 287 287 286 285 285 290 289 287 289 289 288 288 288 291 292 292 290 289 287 286 287
293 292 294 290 288 290 290 290 288 286 285 286 285 288 288 289 288 290 290 293 291 288 291 290 291 288 287 288 287 287 288 289 288 290 290 290 287 289 290 286 289 287 287 287 286 287 288 282 282 280 279 278 282 282 282 280 281 281 282 282 283 284 283 286 285 288 285 285 286 286 285 285 291 287 292 289 288 288 289 290 291 292 290 287 289 286 287 286
293 296 295 292 285 292 287 289 289 287 284 287 287 288 288 289 292 292 288 293 293 294 293 293 292 291 288 289 289 290 290 289 291 290 291 290 291 290 291 290 292 290 287 289 285 286 286 282 281 278 280 280 283 282 280 279 278 277 280 284 285 286 287 288 288 287 288 290 286 284 285 291 293 290 289 285 287 289 290 291 291 289 287 287 288 288 288 286
Wind_Speed
15 13 13 12 13 12 12 11 12 11 11 10 9 8 7 6 3 2 0 1 1 2 3 4 5 7 7 7 5 4 4 2 1 0 2 6 4 4 3 3 3 2 3 1 1 1 0 2 1 4 3 3 2 2 1 3 1 1 2 5 1 2 2 5 6 9 1 5 5 4 5 7 3 0 0 1 4 2 1 1 3 1 1 3 4 3 2 7
15 13 12 12 12 12 12 12 11 11 10 10 9 7 7 5 3 1 0 1 1 2 2 4 5 7 8 8 5 5 3 1 1 3 11 2 6 6 4 3 2 3 3 2 3 3 4 0 1 2 3 2 2 1 0 0 1 3 2 3 4 4 3 6 3 5 3 2 4 4 3 6 5 7 1 3 1 0 1 1 2 3 2 4 2 2 8 10
14 14 13 13 13 12 13 12 12 10 10 9 8 8 6 4 2 1 1 1 2 2 3 4 5 7 8 7 5 4 1 1 0 5 8 8 5 5 4 3 2 2 1 1 2 4 3 4 3 3 3 4 5 2 2 0 1 1 4 2 3 8 2 4 3 3 4 3 5 5 3 2 2 2 1 2 3 0 6 4 1 2 4 1 1 3 6 9
15 15 14 13 13 13 13 12 11 10 9 8 8 7 5 3 2 1 1 2 3 4 4 5 6 7 8 7 6 1 2 0 2 3 1 5 6 4 4 4 3 3 3 3 4 3 4 5 4 4 2 5 2 1 2 1 1 1 3 3 3 4 2 3 4 4 4 4 4 4 2 2 1 3 2 3 5 3 6 6 8 9 8 6 4 4 5 9
15 15 14 13 14 14 13 11 11 10 9 8 7 6 4 3 1 1 1 2 4 4 5 6 7 8 7 6 4 2 3 2 5 1 1 5 4 4 4 3 4 2 0 5 6 4 4 3 2 3 3 1 1 1 0 0 1 4 1 1 2 1 0 1 4 3 1 5 6 2 7 4 1 1 3 8 6 7 8 9 9 8 7 12 12 9 5 9
15 15 14 13 13 13 12 11 10 9 9 8 7 6 3 2 1 1 2 3 4 4 5 6 7 8 7 4 3 3 1 4 1 1 2 4 4 4 4 4 5 3 5 3 2 2 4 3 3 1 1 2 2 5 1 1 1 3 1 1 3 2 0 1 0 1 5 5 6 5 4 4 4 1 2 7 9 5 7 4 8 7 8 11 9 11 9 9
15 14 14 13 12 14 12 12 11 9 9 7 7 6 4 2 0 1 2 3 4 4 5 6 7 8 9 1 2 2 3 4 0 2 2 3 3 3 4 6 6 4 1 3 2 2 1 3 3 2 3 3 0 2 1 1 3 4 4 1 0 3 1 2 1 1 2 11 7 4 2 2 3 3 1 4 7 6 2 3 3 3 6 9 12 12 15 16
16 15 14 12 11 12 12 12 10 10 8 7 6 5 3 1 1 2 2 3 3 4 5 6 7 7 7 2 2 0 0 4 1 2 1 3 5 3 7 4 3 4 3 4 6 3 4 5 5 2 3 5 3 4 1 5 3 2 1 2 1 0 1 2 2 4 3 2 0 4 4 1 2 1 1 6 9 8 5 1 2 6 8 7 9 14 11 10
16 16 15 13 11 9 11 12 11 10 9 7 6 5 3 1 0 2 2 2 3 4 6 6 6 6 1 1 3 3 5 2 2 1 2 4 3 5 6 2 2 4 2 2 0 5 5 4 3 5 3 1 2 5 1 6 2 3 1 4 1 1 2 3 1 4 3 1 2 5 0 3 2 3 3 8 7 4 1 3 4 6 7 9 10 14 13 13
16 15 15 14 12 10 9 8 10 10 9 7 6 5 3 1 1 2 2 2 3 4 6 6 6 5 3 1 2 4 3 1 2 2 3 5 6 7 3 2 4 4 3 0 3 4 4 4 6 5 8 3 2 2 1 2 2 4 4 3 5 1 1 4 1 2 1 1 0 4 1 1 3 2 6 2 5 2 4 3 1 7 9 9 8 9 10 12
17 15 14 14 12 11 12 12 5 6 8 8 7 5 3 2 2 2 2 2 3 4 5 5 6 3 1 0 4 7 1 2 0 2 2 4 7 5 3 4 4 4 3 1 2 4 1 6 3 4 1 4 4 0 2 1 5 5 8 4 6 6 1 1 2 1 1 1 1 5 3 2 2 1 8 2 5 1 5 3 3 4 6 7 8 8 9 10
18 17 16 14 13 13 14 13 10 8 8 8 6 5 1 2 2 2 2 3 4 4 4 4 5 2 1 0 4 5 1 2 2 2 1 3 2 5 3 5 4 4 6 3 3 2 4 6 5 2 2 3 2 2 1 1 3 3 3 2 3 5 1 2 1 1 1 1 0 0 2 1 0 6 6 1 3 1 2 5 4 5 6 5 5 5 6 11
18 17 17 15 15 14 15 13 12 12 9 6 7 3 2 2 1 2 3 3 3 3 3 3 3 1 1 1 6 5 2 2 2 2 2 3 2 1 2 1 3 3 4 4 4 3 3 6 4 5 0 4 4 2 3 5 1 2 6 4 3 2 2 1 1 1 1 1 1 2 3 7 9 14 2 1 3 2 1 5 6 6 5 5 5 6 7 6
18 17 17 16 15 14 14 13 12 11 9 8 5 3 2 2 1 3 4 4 5 3 2 4 3 1 0 3 3 2 2 0 1 1 0 2 3 1 2 3 3 1 0 3 2 4 4 1 5 5 2 4 2 1 5 2 4 4 1 5 2 1 3 2 0 1 4 1 1 1 3 6 6 7 5 4 0 4 6 7 7 7 6 6 6 6 8 9
19 18 17 16 15 14 13 13 12 10 10 7 6 2 2 1 2 4 6 4 3 2 4 4 1 2 1 3 2 5 3 1 1 1 0 1 3 2 1 1 3 4 2 5 4 1 4 4 5 3 2 2 3 5 3 3 3 2 5 1 2 3 4 5 1 3 4 1 5 4 1 8 9 11 6 3 0 4 7 7 6 6 7 7 6 7 8 11
18 18 17 16 15 14 13 12 11 10 9 8 4 3 0 2 2 4 4 4 4 2 1 1 1 2 2 2 0 2 1 1 3 1 1 1 2 1 2 3 0 2 2 4 3 4 3 6 7 2 3 4 8 7 5 3 1 4 2 1 2 1 3 4 0 1 1 1 3 2 5 4 4 3 2 1 3 3 4 5 6 7 8 7 7 7 7 8
17 17 16 15 14 14 13 12 11 10 9 7 5 2 1 3 4 4 5 1 1 2 1 0 1 0 2 1 1 0 2 3 2 1 2 0 0 3 4 2 1 1 4 4 3 2 5 4 3 2 4 5 3 6 7 1 1 3 2 2 3 4 2 2 3 1 0 1 3 2 1 6 4 9 6 6 2 3 2 6 7 7 7 8 6 7 8 8
18 17 16 15 15 15 13 12 11 9 8 7 5 3 1 2 2 3 1 2 1 1 0 1 2 1 7 1 1 4 0 1 0 2 1 1 3 3 2 2 1 4 3 2 4 2 3 1 3 5 2 2 2 4 8 9 9 8 3 2 1 0 3 3 2 1 1 2 3 0 2 11 12 9 10 9 0 2 7 7 8 8 7 7 7 8 8 8
17 17 16 15 15 15 14 13 12 11 9 7 6 2 2 3 2 1 2 1 2 3 1 3 5 6 3 7 2 2 0 2 2 2 1 0 1 3 4 3 4 5 2 3 1 2 3 4 4 4 5 3 7 8 10 5 5 8 9 6 5 5 4 2 4 2 2 2 4 4 6 8 12 11 11 9 1 2 7 6 8 10 10 10 9 8 7 8
18 17 16 17 16 15 15 14 12 11 11 7 3 1 2 3 2 2 1 1 1 2 1 2 3 2 0 2 4 1 1 3 6 2 1 1 0 2 5 2 3 6 4 5 1 2 1 6 7 9 9 9 7 4 3 3 6 5 4 5 4 4 1 2 2 2 0 1 4 5 5 5 11 11 12 12 3 5 8 12 12 11 11 12 11 10 9 7
19 18 18 17 17 16 15 14 13 12 10 4 4 3 4 7 10 2 0 3 3 2 1 2 4 1 0 0 0 4 6 1 2 0 0 0 0 6 1 2 2 3 0 1 5 1 3 5 8 7 8 7 6 7 8 8 4 6 6 5 1 1 2 0 0 2 3 2 2 2 1 8 12 12 13 11 7 12 12 13 13 15 13 12 11 9 5 9
19 18 17 17 17 17 16 15 13 12 9 3 4 4 2 2 0 2 6 2 4 3 2 1 1 1 2 3 1 2 3 3 0 0 1 1 1 6 2 4 4 8 0 2 3 2 2 8 8 6 3 6 5 4 3 6 6 3 6 4 4 2 2 3 0 2 3 1 6 3 4 9 10 11 12 10 14 12 9 7 9 8 12 12 9 4 7 6
20 19 18 17 17 17 16 15 12 12 5 6 5 3 3 3 3 0 3 4 3 0 2 1 2 0 1 3 1 0 1 3 6 3 3 1 1 1 4 4 4 4 1 3 9 4 2 6 10 2 6 8 3 3 7 7 6 6 5 4 5 2 2 1 3 1 3 1 2 2 6 12 8 6 12 16 11 9 5 6 11 9 13 16 6 4 5 8
20 20 19 19 19 17 16 14 12 8 4 6 4 8 3 1 4 5 0 2 3 2 1 1 2 3 4 4 3 3 3 2 4 8 3 4 7 2 4 3 5 4 7 4 8 10 7 1 1 8 4 8 6 3 7 6 3 1 3 4 4 2 2 3 2 1 1 1 2 3 5 10 4 5 6 5 3 4 6 4 8 10 10 11 4 5 6 8
21 21 20 20 18 19 15 14 6 3 4 3 7 7 6 4 3 3 3 1 2 0 1 2 2 1 3 1 1 3 1 1 1 1 1 4 4 4 4 2 4 5 4 3 5 5 3 1 3 6 4 3 7 3 5 9 1 1 3 5 5 5 6 0 2 2 4 2 3 3 3 4 4 7 9 11 7 6 3 4 11 9 5 2 2 7 7 7
21 21 21 20 20 18 18 7 5 4 8 8 4 3 3 3 1 1 6 3 3 2 2 6 2 4 4 1 1 2 2 1 0 1 2 3 3 3 2 1 1 8 3 5 7 3 2 1 2 7 6 5 5 5 4 5 6 3 4 3 3 7 6 5 2 3 0 1 1 2 1 7 6 6 6 8 7 13 12 8 13 15 0 2 3 6 6 6
21 21 21 21 21 20 9 4 6 9 6 8 7 5 2 0 1 0 3 4 3 4 6 1 2 2 2 2 5 3 5 5 0 2 2 3 2 1 5 3 2 3 3 2 3 3 1 2 5 4 5 4 5 3 3 8 7 4 1 6 7 7 6 5 4 2 1 2 3 3 2 2 8 8 7 4 5 11 11 14 16 9 5 4 4 5 4 5
21 21 20 21 23 16 3 6 11 9 5 1 0 6 3 2 3 1 3 3 4 3 3 2 2 2 1 0 4 4 1 3 4 3 0 2 1 2 3 6 6 7 2 4 8 1 2 3 3 4 2 3 6 3 5 5 6 2 2 5 4 5 4 5 5 4 1 1 7 3 1 0 6 9 5 1 5 6 9 13 10 9 6 4 6 4 4 5
22 21 22 20 21 12 8 6 8 10 2 0 2 6 5 5 3 6 4 2 0 2 2 6 4 2 2 1 2 2 1 3 2 1 2 2 4 2 1 4 5 7 4 2 7 1 2 2 4 5 6 5 3 0 3 5 4 1 7 8 7 7 6 4 4 3 1 1 6 2 3 3 8 7 6 2 2 8 10 7 9 9 7 6 5 4 4 4
22 22 21 22 16 6 3 3 7 3 0 1 4 6 6 3 3 3 3 7 4 3 1 1 3 6 3 9 1 2 3 1 1 0 3 3 2 4 2 3 5 5 2 6 6 4 1 4 5 3 3 2 4 2 2 1 1 10 5 8 6 8 4 3 7 2 2 2 7 5 2 2 5 5 7 3 5 6 3 5 5 6 5 3 2 3 2 1
23 23 21 21 10 5 6 4 6 4 1 3 5 7 5 6 5 4 6 7 3 1 2 1 3 3 9 12 8 1 4 1 1 4 3 1 1 3 2 4 4 6 5 5 2 5 2 2 1 1 3 3 3 5 4 3 4 6 3 4 5 2 6 3 5 5 1 5 5 1 2 1 6 6 6 8 5 5 3 4 7 6 5 5 1 0 1 1
21 23 24 14 6 9 9 4 5 5 3 4 6 6 6 5 3 8 4 1 3 5 6 5 2 5 14 8 6 4 6 2 0 4 9 5 6 7 7 9 6 5 2 6 5 1 1 2 1 5 3 6 3 9 5 3 2 5 7 7 6 2 4 3 3 2 5 6 0 3 2 1 11 10 7 8 9 8 7 7 6 5 5 3 1 1 1 0
21 20 22 9 8 6 2 1 3 6 4 4 5 3 6 6 9 9 4 5 3 6 7 6 8 7 7 7 6 4 1 8 2 1 4 0 7 4 1 3 5 6 9 4 5 2 4 2 2 3 2 3 5 11 2 2 1 3 7 6 5 1 1 3 3 1 6 5 4 1 0 5 4 6 12 16 11 3 5 8 7 5 4 4 3 2 2 3
21 20 12 6 5 5 3 3 3 7 6 5 6 6 4 5 8 10 7 5 2 2 6 4 4 4 13 13 7 8 5 2 6 3 3 4 4 7 7 4 4 2 7 2 8 7 3 4 6 6 2 2 3 4 11 8 9 7 1 8 8 8 5 4 3 5 6 4 2 4 1 7 2 2 2 8 9 7 7 4 5 5 4 4 7 5 4 5
21 15 9 5 5 7 3 2 4 5 5 6 7 10 12 11 8 13 10 6 2 1 2 1 10 9 4 2 0 3 4 2 1 5 3 8 7 6 11 10 2 5 3 10 4 3 8 4 4 2 2 2 8 1 4 6 5 0 3 6 5 6 6 1 4 2 0 1 2 1 6 4 4 3 9 6 7 7 5 7 2 4 3 3 3 4 5 5
17 10 8 6 6 5 4 3 2 4 6 8 10 9 13 13 9 6 7 6 2 5 5 7 3 9 3 3 1 6 3 4 5 5 3 6 2 10 5 3 8 9 9 9 4 4 3 5 2 7 4 2 0 0 0 2 7 4 4 4 5 2 9 6 1 1 1 4 8 2 8 7 8 7 9 5 5 9 6 6 4 4 4 5 5 5 6 6
10 10 9 7 6 4 6 4 4 4 3 6 12 13 13 7 3 4 4 10 5 13 8 12 5 6 7 7 6 8 4 5 3 5 6 2 4 5 5 6 4 6 7 10 1 2 10 4 1 3 2 1 1 0 2 4 3 8 2 7 2 2 5 5 4 2 2 3 7 2 8 5 3 8 4 3 5 9 8 9 7 5 0 4 4 5 6 7
9 8 6 7 8 7 7 5 4 3 4 6 12 14 2 7 1 3 3 7 5 5 6 8 2 8 7 8 6 8 2 7 6 2 4 6 5 5 7 2 4 11 9 2 5 3 6 2 1 1 0 5 2 0 3 2 2 4 3 4 7 3 2 1 4 2 1 2 6 4 2 5 8 8 4 1 5 7 9 10 8 10 6 1 2 4 6 7
7 8 5 9 7 9 6 6 1 4 6 8 10 14 2 3 1 4 7 10 4 5 9 4 5 4 6 10 6 6 10 10 8 7 7 4 6 4 14 8 3 4 7 5 3 1 1 5 2 1 2 1 1 3 9 4 2 1 3 4 0 3 2 4 6 3 5 4 1 8 3 8 6 7 9 9 8 8 6 4 7 9 5 2 5 7 8 8
9 6 4 6 9 9 8 6 3 2 6 15 14 9 1 3 2 1 3 12 3 6 4 6 2 6 4 4 8 11 6 6 12 8 6 3 8 2 6 6 6 7 9 3 1 4 5 1 4 1 3 2 4 5 10 11 9 2 2 2 0 1 2 5 1 4 4 5 5 2 7 6 7 7 7 10 9 7 6 7 5 6 6 6 7 8 8 7
2 2 2 7 12 11 10 6 4 10 11 9 8 3 1 2 1 0 7 3 2 2 4 4 7 6 6 5 2 3 4 5 7 8 6 4 10 6 8 10 8 7 5 1 2 4 3 2 8 3 1 5 6 2 2 9 9 12 12 12 13 10 5 5 7 3 2 3 4 3 10 6 6 4 9 7 7 5 5 4 6 6 5 6 6 4 2 4
1 5 3 11 14 15 11 11 5 2 1 11 9 3 1 1 3 3 3 1 3 1 3 5 2 5 7 7 8 8 6 5 4 5 4 9 8 7 2 9 8 13 12 9 11 2 4 3 9 4 8 9 2 0 2 1 2 1 3 7 5 4 6 5 6 5 2 2 5 2 0 11 6 4 5 5 3 3 4 5 5 4 4 4 4 5 3 4
2 1 1 11 15 15 9 5 1 2 6 3 3 3 2 2 2 1 4 1 2 1 1 2 6 5 4 3 4 7 13 6 11 10 6 10 6 8 5 10 11 11 11 4 4 3 5 4 5 1 3 3 2 3 3 2 1 2 5 2 5 9 6 6 2 6 8 1 1 1 2 8 1 2 3 5 5 5 3 6 4 0 0 0 0 2 3 2
1 0 2 7 11 11 11 11 12 13 10 1 1 1 2 1 2 1 2 1 3 2 3 3 1 2 4 3 5 9 9 4 5 8 5 2 4 6 9 9 15 9 12 8 12 8 5 3 8 3 2 3 4 3 2 2 0 4 3 3 3 4 4 3 5 2 1 9 8 8 10 10 4 2 2 2 4 1 1 3 4 3 3 3 2 2 1 2
3 2 3 2 9 7 12 4 8 10 7 2 4 3 2 0 1 0 2 3 0 2 3 2 3 4 1 2 5 5 11 10 3 8 4 0 4 0 6 12 11 9 9 3 3 9 6 5 9 7 10 9 7 8 14 16 12 2 0 4 6 10 8 6 5 2 5 4 8 5 11 5 3 1 1 2 1 2 3 2 1 3 1 1 2 2 4 5
5 4 2 2 1 6 3 4 3 2 6 4 5 4 4 2 1 4 2 1 2 1 1 1 1 3 3 6 4 4 8 6 4 4 9 6 4 1 6 10 13 8 6 11 8 10 3 2 6 11 14 15 15 9 3 12 5 6 8 10 7 7 10 8 4 5 13 7 8 14 16 3 4 5 2 5 1 4 2 1 3 2 2 3 4 3 2 2
1 2 5 5 3 4 2 2 3 3 7 8 8 5 9 10 3 1 2 1 2 2 0 1 1 5 2 7 6 6 8 11 0 4 9 11 2 2 4 8 8 9 11 6 8 6 3 5 9 10 14 15 13 5 6 12 12 15 14 11 13 12 13 13 12 15 10 8 10 15 10 10 15 6 7 7 7 5 4 5 5 4 5 5 2 2 1 1
3 1 2 1 3 5 5 6 8 7 1 6 5 3 9 10 4 6 2 2 1 0 3 1 1 2 9 11 7 6 6 6 6 6 3 2 4 1 3 1 4 3 7 3 6 5 6 8 9 6 11 13 5 5 7 6 11 12 16 15 14 15 13 16 17 20 9 12 19 13 10 13 19 13 13 11 8 8 7 8 8 6 2 1 1 2 0 0
2 1 1 1 2 2 4 4 10 7 9 7 2 2 5 10 13 9 3 2 1 1 3 5 7 9 7 7 9 5 8 7 8 5 5 6 9 4 2 2 2 2 5 2 4 1 4 6 6 7 13 13 6 5 6 10 6 5 9 13 17 17 18 21 21 22 19 16 16 14 11 18 19 11 11 13 10 8 10 4 1 2 6 4 5 3 2 2
3 1 0 1 1 4 5 7 9 8 8 10 8 10 5 9 14 8 1 5 3 4 1 4 6 7 6 5 6 7 9 11 11 12 3 5 0 1 6 6 5 1 2 4 5 2 5 6 7 4 4 8 9 6 4 8 8 7 7 8 11 15 18 22 21 22 18 13 11 11 10 12 16 5 4 8 7 4 3 5 10 11 10 8 5 3 4 3
1 2 2 1 4 3 5 6 8 9 7 5 8 6 7 11 13 11 8 4 10 8 7 14 9 2 2 4 4 5 4 7 4 7 11 13 12 9 9 5 7 8 6 4 2 1 4 4 3 4 4 5 5 8 11 5 2 4 6 6 10 13 14 15 16 13 8 11 15 15 13 16 14 8 10 7 5 7 8 11 10 11 7 5 6 6 5 4
1 2 2 1 0 5 7 4 4 6 7 9 10 7 7 15 9 7 7 3 3 3 5 9 5 5 3 4 8 9 5 4 3 2 6 2 2 1 2 3 13 13 8 10 4 7 7 5 5 4 7 8 7 7 6 5 2 4 10 15 19 18 16 16 11 7 11 17 15 13 18 17 17 9 8 3 7 9 11 12 11 6 6 6 7 7 5 4
Wind_Direction
176 166 176 176 180 186 183 186 183 177 173 168 168 165 163 160 153 134 226 347 345 335 323 320 308 303 296 293 309 353 29 95 84 129 160 239 167 140 140 108 95 106 85 85 52 96 261 20 70 332 59 60 320 91 260 61 61 54 81 112 86 201 146 204 173 189 211 139 208 191 200 119 149 189 223 73 33 69 12 63 308 313 5 308 278 281 198 126
171 164 170 185 186 185 184 185 179 178 170 166 165 166 164 151 128 122 55 10 11 327 326 321 309 301 301 300 328 25 74 86 211 225 220 151 131 138 120 103 123 87 113 63 120 140 131 342 21 47 89 72 326 77 2 233 75 97 115 94 212 186 233 149 199 198 128 239 181 193 181 153 198 139 232 119 273 56 119 294 9 323 303 354 354 73 132 135
166 162 169 190 186 188 184 183 178 168 169 169 160 164 156 115 121 146 73 36 13 352 338 329 314 302 297 312 334 14 84 50 315 253 245 154 148 141 129 112 131 121 103 143 197 139 150 180 187 93 10 100 2 153 51 144 73 204 120 184 249 206 226 219 179 204 214 128 151 174 212 148 193 137 168 185 181 58 192 199 317 284 253 303 356 114 137 145
164 162 169 189 186 187 181 177 174 173 166 165 165 159 145 121 107 124 325 18 18 354 348 334 313 299 301 318 347 47 64 99 237 238 266 159 144 138 123 122 112 97 107 68 145 109 106 82 70 97 67 72 308 36 117 251 116 214 85 166 225 196 127 236 177 230 220 168 166 164 74 138 242 192 154 165 114 266 265 231 179 201 218 185 187 163 156 157
162 163 166 186 187 182 177 180 179 182 171 170 166 165 136 130 112 334 2 20 4 355 345 324 310 302 314 331 8 93 95 45 261 220 277 161 151 130 125 117 117 104 134 142 84 52 73 104 98 41 87 148 6 34 7 350 139 94 198 199 181 138 3 204 194 205 162 162 119 128 137 210 78 54 121 150 160 216 213 227 217 209 176 156 173 187 168 173
162 163 167 180 188 182 176 184 185 186 177 173 171 152 143 123 103 314 16 27 2 349 332 313 307 316 324 347 74 71 116 159 274 347 119 149 134 134 121 123 124 114 111 78 108 132 105 20 81 102 27 87 168 136 233 142 336 160 319 233 207 204 157 328 147 289 140 123 138 149 203 103 140 199 204 176 191 231 227 229 211 206 180 174 151 156 175 180
161 164 169 172 187 183 177 184 182 193 183 179 182 170 145 138 241 334 13 18 355 330 318 307 313 325 325 12 69 109 206 261 352 246 141 139 123 119 119 112 114 108 123 101 96 127 95 107 92 175 90 67 298 120 183 153 19 104 180 189 59 181 182 37 355 3 147 135 181 194 95 137 160 172 118 202 245 228 264 280 253 155 119 142 153 183 180 187
162 164 165 168 179 188 174 181 185 193 179 190 186 177 144 140 338 310 1 347 333 320 307 313 322 326 349 77 103 256 60 255 207 353 77 85 60 78 104 97 114 119 122 169 148 140 131 133 152 143 77 145 208 128 227 87 27 107 140 199 218 96 295 352 56 70 98 79 66 116 138 251 178 153 87 250 245 252 256 359 94 127 138 157 168 179 191 198
162 163 163 164 173 185 179 180 185 190 191 192 190 185 158 147 334 336 318 321 318 318 312 314 323 336 45 73 133 102 241 238 172 357 75 86 67 91 132 121 161 134 143 96 203 172 138 231 126 180 221 166 153 97 253 124 311 167 148 124 56 40 334 348 42 44 53 96 103 100 326 308 237 219 238 235 245 250 115 62 101 125 144 173 186 186 187 196
161 162 164 164 169 165 158 161 186 192 191 196 197 185 183 193 295 285 284 300 315 312 310 315 335 332 61 93 68 173 260 265 330 48 88 111 91 98 88 132 130 114 122 355 92 123 178 202 168 182 121 73 123 106 166 105 209 140 88 98 100 305 347 3 115 3 343 99 189 130 242 249 325 49 280 301 260 324 134 98 111 148 176 192 193 193 201 197
160 160 163 164 160 160 160 176 147 180 190 198 190 189 175 233 256 249 291 303 310 306 309 316 359 28 100 192 142 214 204 81 20 4 73 127 96 117 194 156 157 131 121 120 208 185 201 149 155 108 51 222 117 335 123 230 118 94 135 95 26 348 60 2 58 9 16 45 85 138 172 306 305 73 231 224 346 344 175 169 162 195 202 202 206 201 205 213
162 163 164 163 160 164 170 167 170 182 191 191 189 137 175 263 248 268 297 316 312 320 307 327 37 83 83 108 189 213 306 247 330 340 79 114 128 194 218 158 164 165 153 171 241 236 173 162 128 97 184 130 94 121 45 138 71 136 107 96 317 5 54 353 148 298 4 172 263 173 102 271 165 225 237 179 354 42 192 217 222 227 232 230 228 222 213 218
163 163 165 163 164 168 172 171 177 190 191 180 109 136 191 241 253 291 300 337 353 327 318 344 52 124 114 123 242 241 279 287 326 352 67 51 97 67 119 133 182 170 169 145 205 204 166 141 121 87 98 98 151 127 173 77 12 118 37 117 38 11 346 306 326 327 105 215 47 191 254 265 248 243 221 265 28 54 266 254 247 245 243 243 230 225 233 237
162 163 165 165 166 167 170 172 174 180 187 199 141 152 207 208 289 304 310 322 334 318 319 29 81 67 96 241 268 260 302 255 322 60 62 324 114 341 49 41 75 101 11 105 92 125 120 96 101 121 123 101 136 278 72 1 21 123 220 57 102 92 254 310 38 302 150 345 6 104 196 285 274 278 268 291 127 172 219 235 239 241 247 244 236 235 235 237
164 164 165 165 166 165 167 169 172 176 186 192 185 160 208 206 297 306 307 318 323 0 23 46 70 107 75 266 278 305 273 93 12 244 249 113 121 58 17 52 45 40 111 113 131 100 117 100 91 58 94 294 103 80 43 38 10 26 79 277 329 154 277 298 323 168 161 325 37 86 313 248 267 275 294 299 333 172 218 236 248 249 247 244 239 236 243 243
165 164 165 165 165 165 166 167 172 181 174 179 155 184 132 328 304 307 314 290 292 356 33 135 45 105 99 298 234 326 30 129 200 277 304 121 123 170 163 140 144 31 46 23 74 109 49 85 74 169 128 38 67 101 74 62 338 359 95 232 196 118 252 340 246 307 188 113 358 159 219 321 322 278 284 16 69 135 223 271 265 261 258 256 247 240 243 262
165 163 163 163 159 163 164 166 171 170 163 150 160 167 251 274 293 295 297 291 32 65 155 141 127 199 160 273 335 110 227 239 324 40 25 20 148 156 97 69 42 57 46 86 29 53 3 66 296 45 29 121 153 108 92 6 315 244 34 152 210 162 229 258 306 287 10 88 211 9 209 238 244 292 290 308 47 19 296 272 272 256 248 249 250 248 246 247
164 164 163 159 159 158 161 163 166 166 159 146 141 146 218 274 331 331 117 25 352 140 66 152 135 96 262 51 196 227 195 144 356 173 69 303 114 88 100 92 40 78 51 76 357 92 326 71 26 177 24 46 129 97 139 202 185 196 186 119 255 272 203 208 150 203 110 7 185 331 246 276 274 274 284 279 195 303 276 259 270 278 266 254 246 245 242 244
160 162 159 156 156 157 160 165 163 158 143 149 159 168 269 309 68 123 87 65 111 76 148 202 144 163 204 216 226 37 175 206 99 70 165 44 5 101 59 69 85 119 126 82 243 123 349 71 36 70 155 151 195 177 172 204 155 187 177 172 140 143 211 208 244 278 175 155 221 202 213 252 270 283 284 286 321 260 267 290 286 273 269 265 252 245 238 237
160 157 155 157 155 158 161 159 157 156 163 143 116 102 54 70 43 79 351 344 224 181 157 209 162 193 6 357 134 271 315 28 135 322 313 286 121 65 35 61 33 59 113 164 173 96 100 137 178 191 191 190 194 164 147 161 148 117 88 104 164 162 275 277 289 285 336 105 240 231 258 266 275 269 273 280 302 294 284 277 266 264 264 263 259 249 247 245
163 157 158 157 157 159 161 162 162 158 148 104 131 119 164 179 118 224 243 252 211 191 38 323 189 157 27 127 299 156 123 345 50 102 212 199 158 115 244 45 57 128 15 186 141 259 67 156 223 205 197 183 164 135 111 71 58 136 134 130 159 162 170 210 106 349 322 162 290 29 306 264 257 271 271 279 299 270 250 254 260 258 257 257 254 260 251 247
163 158 155 158 159 159 160 159 159 165 138 127 133 161 265 217 74 213 128 152 249 209 187 221 101 39 352 199 250 123 62 92 78 103 306 120 98 146 269 105 147 167 199 113 56 89 157 198 223 208 160 97 100 108 74 113 112 55 145 152 107 244 244 292 265 343 328 75 263 3 338 273 263 261 269 259 255 255 246 225 246 255 267 261 254 246 241 251
163 157 154 158 160 158 157 157 159 160 144 151 192 180 231 228 339 302 100 108 157 222 133 119 150 44 359 327 275 325 88 145 180 241 226 75 102 176 140 111 126 129 73 165 155 132 158 277 236 158 140 117 62 90 100 73 65 109 97 113 188 240 118 258 289 353 354 66 312 341 329 286 274 264 258 257 247 262 269 252 255 236 252 259 262 221 222 230
161 160 156 161 161 155 153 153 152 157 195 196 214 206 217 41 7 12 69 139 175 248 160 230 142 164 178 146 214 114 138 215 124 198 287 120 153 173 109 138 121 124 183 174 157 163 188 233 49 123 151 143 136 135 122 130 145 358 118 124 120 155 224 147 217 342 327 37 63 10 314 294 319 326 316 290 316 300 281 304 278 264 239 264 304 299 233 239
160 158 156 159 157 152 147 144 150 192 138 217 252 246 264 312 61 0 92 31 19 192 6 341 132 235 194 77 31 159 231 63 236 220 201 135 148 92 188 170 109 188 161 161 119 144 253 277 140 96 90 88 117 140 179 133 125 6 228 166 190 177 145 238 12 106 20 346 349 51 346 308 300 294 248 276 327 312 277 342 291 270 266 311 282 260 272 262
158 156 153 154 154 147 137 136 197 138 151 204 209 235 248 259 308 334 96 70 216 250 33 206 136 232 140 226 62 162 94 219 269 227 112 210 165 137 100 119 111 196 156 145 162 175 200 359 134 153 125 110 125 161 211 141 156 124 249 162 151 141 126 128 96 75 282 175 332 16 161 271 321 286 295 289 330 305 304 291 276 289 223 169 216 245 252 261
156 155 152 154 153 143 132 212 133 115 133 259 244 233 213 114 120 118 70 11 332 196 159 261 89 230 57 201 137 108 123 245 102 49 63 347 151 333 129 200 41 39 159 164 58 243 100 50 73 69 94 106 125 142 214 144 124 204 231 115 111 105 126 158 116 139 198 259 297 41 114 219 302 281 241 324 321 292 291 286 277 271 325 272 245 249 253 258
157 154 153 156 156 148 149 128 148 173 198 202 214 178 155 143 111 65 78 108 257 142 152 234 218 358 96 233 110 150 214 175 104 227 105 296 107 1 94 198 161 168 174 107 184 267 132 161 137 111 77 101 170 211 168 128 125 221 188 126 126 134 143 118 95 108 137 40 280 337 249 278 252 267 305 336 318 296 281 265 283 298 276 261 271 272 264 248
155 154 156 158 157 141 122 147 178 187 207 238 128 108 107 104 97 120 134 149 246 86 293 117 268 77 19 95 90 76 77 360 147 227 309 55 28 153 112 209 122 117 34 146 175 231 356 160 216 145 128 179 232 328 148 123 97 242 128 89 91 81 72 88 102 80 352 40 269 237 185 205 277 278 330 338 264 265 261 283 281 283 288 282 292 295 271 258
154 155 158 158 152 118 113 101 193 227 342 80 108 113 98 98 114 148 127 239 125 202 164 239 164 197 131 148 225 18 134 338 113 330 37 148 325 38 20 148 118 92 64 23 78 180 252 319 171 86 176 191 132 41 145 342 108 128 107 80 37 40 28 27 59 88 60 303 252 244 289 156 292 270 228 166 213 206 259 299 292 309 336 318 271 258 267 269
158 158 162 161 160 156 112 181 225 204 165 104 128 111 107 40 146 109 188 225 56 89 39 131 179 87 141 157 177 305 87 7 112 146 113 1 29 46 149 45 46 61 59 19 37 333 17 356 79 282 86 107 102 81 19 58 101 125 103 124 79 355 13 32 348 32 142 267 266 250 221 125 188 288 284 243 264 233 206 261 295 318 340 323 319 283 256 225
158 164 167 167 152 146 174 197 200 168 161 144 118 124 121 137 346 183 207 81 149 198 162 180 261 153 182 174 123 142 141 47 49 155 154 170 155 148 208 160 159 94 195 171 199 350 33 99 268 332 200 129 112 88 9 21 0 80 87 71 116 240 37 265 14 245 216 212 253 331 193 332 241 224 260 282 270 257 212 218 238 262 304 331 288 197 227 284
163 165 169 164 144 170 194 219 121 152 129 140 109 90 149 116 196 211 243 186 251 144 220 153 173 173 153 120 172 154 355 153 223 91 91 83 138 241 260 148 189 138 186 218 100 97 271 285 353 299 16 223 142 128 139 112 257 107 137 133 105 132 84 242 276 255 306 291 271 323 264 257 261 276 236 247 252 222 216 225 234 235 242 291 310 308 328 311
163 165 164 161 159 169 184 117 139 131 135 139 131 92 58 159 218 208 195 206 191 360 92 123 82 74 151 174 191 165 138 307 148 184 125 152 132 183 240 276 130 83 80 155 153 185 120 299 252 143 232 168 193 167 174 158 168 207 84 148 176 143 157 210 195 206 218 209 285 283 69 234 112 250 302 256 276 293 275 256 249 258 251 239 282 298 308 292
165 161 152 142 151 201 161 121 146 145 123 145 140 174 174 205 214 190 201 204 259 45 80 158 126 133 194 17 310 219 129 145 181 110 161 146 200 193 190 201 229 108 142 130 251 103 204 201 271 291 278 156 170 245 109 94 41 27 155 78 92 221 139 139 208 148 241 337 356 226 217 192 173 280 290 274 300 297 293 304 274 252 210 215 251 241 244 248
156 161 143 160 182 194 144 136 134 128 144 155 158 181 199 193 203 170 211 124 134 119 115 60 56 144 162 111 331 193 309 117 215 130 220 201 212 189 195 182 187 194 160 174 171 167 44 239 340 313 43 110 229 349 44 129 181 220 110 201 208 132 98 94 64 17 104 39 258 157 306 288 299 316 268 305 320 287 297 279 299 270 175 175 193 213 232 244
166 146 165 166 195 155 156 143 135 120 137 185 169 195 204 218 186 127 163 158 181 135 132 136 236 141 166 193 174 193 219 79 179 129 217 144 284 203 203 234 177 179 212 127 241 215 151 227 338 80 194 343 233 99 91 28 148 98 178 228 183 141 118 128 212 353 68 195 267 86 238 297 25 283 332 338 268 283 303 292 276 268 130 174 199 215 229 236
155 154 154 173 191 142 142 156 105 102 120 170 198 209 199 205 240 104 142 93 112 139 129 156 226 106 190 151 205 176 226 161 198 184 185 180 240 189 172 176 197 188 198 272 143 228 121 89 305 348 28 293 352 124 30 354 34 144 198 194 116 219 230 307 91 246 141 263 271 294 276 258 197 245 332 327 192 242 251 259 280 286 270 195 196 247 260 270
146 157 168 201 154 145 142 140 90 121 154 179 205 217 210 214 177 158 188 133 132 123 154 222 131 231 148 185 169 173 165 182 169 195 152 231 206 203 185 166 214 186 183 155 169 141 138 147 279 327 139 298 1 103 198 197 2 46 83 79 113 100 157 125 199 171 124 238 62 288 39 254 194 217 198 228 219 216 225 270 258 253 270 187 205 208 218 231
155 151 188 140 139 135 134 118 90 142 169 193 203 217 99 147 215 215 195 135 192 140 216 163 230 125 163 199 162 163 218 179 169 191 190 192 198 286 188 213 174 184 172 144 126 166 183 152 205 285 303 98 187 203 215 156 149 92 104 177 208 26 237 109 46 132 179 173 183 249 309 276 262 212 183 220 225 226 197 225 260 271 268 233 218 214 223 233
146 98 120 142 139 138 126 116 147 183 194 222 221 173 4 172 158 50 191 350 97 20 150 147 154 163 169 115 218 182 157 143 175 179 189 217 189 214 214 187 143 156 121 133 116 187 121 180 183 129 55 226 242 262 161 174 185 175 170 191 180 134 148 159 251 39 103 117 229 138 256 255 269 179 204 208 235 212 228 212 265 278 283 299 308 301 251 261
135 140 195 158 148 145 145 148 206 191 206 209 202 155 192 84 144 172 136 260 97 137 41 112 173 138 154 176 157 175 141 169 182 179 233 198 217 210 265 152 148 148 151 184 192 221 142 132 104 181 203 206 206 29 287 274 45 189 172 234 172 175 104 141 192 239 50 254 109 167 229 270 243 208 216 222 223 214 232 189 235 268 285 289 292 273 254 224
44 125 71 155 160 151 142 157 32 204 223 237 39 37 18 39 126 256 146 219 174 94 115 149 185 137 265 136 173 160 164 190 173 198 189 212 233 194 225 163 140 158 155 171 66 221 99 99 111 318 312 317 316 303 38 91 125 323 273 123 148 194 176 165 152 177 164 172 124 321 265 263 324 141 236 251 267 268 248 203 195 235 35 319 226 58 69 89
74 354 78 176 179 166 156 177 191 204 206 31 135 160 345 151 138 103 168 204 161 148 158 162 350 218 162 149 146 172 182 161 239 199 238 225 237 221 152 176 159 169 165 205 176 198 159 265 139 128 21 345 344 344 346 345 121 210 199 191 173 102 86 128 102 80 157 216 172 138 230 258 267 347 310 307 336 5 256 241 221 79 13 353 353 102 88 42
138 348 335 154 194 187 187 192 199 204 187 107 153 177 170 72 267 64 154 177 66 161 130 219 177 152 109 156 164 164 187 179 154 224 200 159 225 98 202 165 197 174 211 200 167 157 184 174 143 154 180 185 203 194 214 211 201 170 252 157 174 160 150 124 211 167 214 264 155 190 244 244 253 2 321 307 352 277 262 259 277 254 256 285 312 336 8 32
166 157 230 342 195 224 225 93 71 155 156 147 186 215 132 171 329 325 104 106 166 149 81 174 3 118 109 141 139 165 196 234 148 189 183 220 233 279 210 187 181 197 196 119 143 140 175 159 195 192 194 209 213 212 50 91 81 187 214 167 189 187 178 179 112 136 212 215 170 221 226 232 238 249 272 238 245 205 205 166 194 215 272 269 248 271 328 356
74 130 150 191 37 9 353 360 167 142 200 166 200 159 193 196 171 4 246 143 230 154 76 67 172 151 228 148 172 188 199 201 77 121 196 200 226 206 8 176 201 206 140 129 159 101 90 196 219 210 221 220 221 180 205 149 171 201 191 193 189 180 182 179 183 215 197 82 248 233 217 234 241 208 237 244 251 259 239 239 263 268 254 231 238 270 62 26
152 222 105 204 132 185 159 239 208 199 276 163 219 130 198 188 177 184 27 273 99 357 146 311 67 231 170 176 154 176 183 206 182 213 187 235 93 317 97 6 182 223 165 166 187 151 153 202 226 178 238 239 216 151 176 176 182 193 199 188 185 191 182 190 211 224 166 196 228 235 146 217 246 213 213 223 216 218 235 234 217 218 262 320 325 286 11 243
46 18 228 40 169 208 202 103 160 190 195 191 229 137 183 181 201 199 152 151 109 249 193 199 210 212 196 183 162 174 164 169 233 224 178 177 180 136 126 39 263 82 163 119 169 199 143 233 217 176 223 239 220 168 183 178 204 206 202 197 194 185 192 200 214 219 208 217 228 242 177 218 235 231 194 227 229 231 249 263 349 260 241 211 211 208 167 169
172 162 236 187 18 134 155 140 154 155 176 194 197 217 199 185 204 198 184 151 171 230 150 223 217 209 183 181 185 180 196 194 185 204 183 130 165 138 193 183 149 5 137 162 169 266 157 252 159 134 203 252 241 185 190 199 186 209 225 202 194 197 202 207 215 224 222 234 247 258 259 258 255 205 188 236 227 226 265 254 232 238 242 217 206 169 170 148
29 15 17 151 159 166 147 152 159 164 166 176 207 212 205 215 216 189 211 183 199 196 178 209 198 100 81 156 203 231 224 205 209 201 175 162 185 202 161 251 147 151 170 163 166 157 161 250 52 103 184 271 239 176 212 196 196 214 230 206 201 199 212 221 219 222 191 211 228 238 251 252 253 120 217 216 184 199 215 227 231 235 231 196 196 178 161 148
61 283 139 305 159 170 153 163 151 144 204 196 192 185 188 215 220 171 222 242 240 217 189 207 191 146 215 155 213 220 200 183 189 199 203 211 58 188 206 156 165 154 172 181 169 157 173 159 161 144 193 234 247 171 164 114 90 279 243 226 210 208 209 218 223 233 214 204 210 213 233 240 246 212 210 231 179 207 223 228 234 235 225 202 184 167 156 147